Regional Weather Roundup
Issued by NWS

Home | Current Version | Previous Version | Graphics & Text | Print | Product List | Glossary On
Versions: 1 2 3 4 5 6 7 8 9 10 11 12 13 14 15 16 17 18 19 20 21 22 23 24 25 26 27 28 29 30 31 32 33 34 35 36 37 38 39 40 41 42 43 44 45 46 47 48 49 50
000
ASUS45 KBOU 222007
RWRCO

WEATHER ROUNDUP FOR COLORADO
NATIONAL WEATHER SERVICE DENVER/BOULDER CO
200 PM MDT FRI SEP 22 2017

NOTE: "FAIR" INDICATES FEW OR NO CLOUDS BELOW 12000 FEET WITH NO
SIGNIFICANT WEATHER AND/OR OBSTRUCTIONS TO VISIBILITY.

COZ001>005-013-030-031-222100-
...NORTHWEST COLORADO...

CITY           SKY/WX    TMP DP  RH WIND       PRES   REMARKS
CRAIG          LGT RAIN  59  40  49 SW5       29.86F
HAYDEN         FAIR      63  36  36 NW9       29.85F
MEEKER         FAIR      68  33  27 S22G32    29.83F
RABBIT EARS PA MOCLDY    48  37  66 S8G20     30.09S
STEAMBOAT SPGS PTSUNNY   59  40  47 E17       29.88F
WALDEN         FAIR      59  34  38 SW20      29.96F
$$

COZ006>008-011-222100-
...WEST CENTRAL VALLEYS...

CITY           SKY/WX    TMP DP  RH WIND       PRES   REMARKS
GRAND JUNCTION FAIR      75  28  17 SW20G29   29.75F
MONTROSE       FAIR      76  31  19 S21G31    29.84F
EAGLE          LGT RAIN  65  41  41 SW13G18   29.89F
RIFLE          FAIR      74  29  19 SW21G33   29.79F
DELTA          NOT AVBL
NUCLA          FAIR      73  23  15 SW21G31   29.88F
$$

COZ017>023-064>068-222100-
...SOUTHWEST COLORADO...

CITY           SKY/WX    TMP DP  RH WIND       PRES   REMARKS
DURANGO        PTSUNNY   64  43  46 E9        29.97F
CORTEZ         FAIR      76  27  16 S24G32    29.88F
PAGOSA SPRINGS CLOUDY    65  34  31 SW13G18   30.04S
TELLURIDE      PTSUNNY   55  36  50 SE24G31   30.05F
WOLF CREEK PAS   N/A     36  36 100 S14G25    30.28S
$$

COZ009-010-012-014-032>034-037-058>063-222100-
...CENTRAL COLORADO...

CITY           SKY/WX    TMP DP  RH WIND       PRES   REMARKS
ASPEN          FAIR      63  40  42 VRB3      29.90F
BUENA VISTA    LGT RAIN  62  36  38 SW14G22   29.97S
COPPER MTN     LGT RAIN  45  32  61 S26G38    30.19R
BERTHOUD PASS  FAIR      45  36  70 W33G48    30.21F
COTTONWOOD PAS PTSUNNY   55  41  58 SW16G22   30.09F
GUNNISON       FAIR      65  37  35 S20G31    29.97F
KREMMLING      FAIR      73  36  25 S8        29.94R
LEADVILLE      LGT RAIN  49  36  61 SE20G29   30.07R
MONARCH PASS   CLOUDY    45  32  61 SW28G36   30.31S
SALIDA         PTSUNNY   74  28  18 SW10G23   30.00R
SUNLIGHT       PTSUNNY   45  39  81 S12G26    30.11F
WILKERSON PASS PTSUNNY   55  27  33 S13G25    30.17S
$$

COZ069>075-222100-
...SAN LUIS VALLEY/SANGRE DE CRISTO MOUNTAINS...

CITY           SKY/WX    TMP DP  RH WIND       PRES   REMARKS
ALAMOSA        FAIR      73  32  22 SW25G39   29.98F
DEL NORTE      FAIR      66  38  35 W21G28    30.02F
LA VETA PASS   FAIR      59  30  33 S31G55    30.24S
SAGUACHE       FAIR      70  34  26 W23G36    30.00S
$$

COZ035-036-038>040-222100-
...NORTHERN COLORADO FRONT RANGE...

CITY           SKY/WX    TMP DP  RH WIND       PRES   REMARKS
DENVER INTL AP FAIR      84  32  15 VRB5G18   29.74F
DMNS CITY PARK   N/A     73  38  28 NE7G21    29.76F
AURORA         PTSUNNY   79  39  24 NW12G17   29.78F
FRONT RANGE AP PTSUNNY   86  30  13 S20G37    29.77F
ERIE MUNI ARPT FAIR      72  38  28 N8        29.82F
BOULDER MUN AP FAIR      70  39  32 NE8       29.78F
CENTENNIAL     PTSUNNY   78  39  24 NW16G24   29.78F
BROOMFIELD     PTSUNNY   73  39  29 N7        29.81F
FORT COLLINS   FAIR      75  40  28 SE6       29.79F
LONGMONT       FAIR      74  41  29 NE7       29.79F
$$

COZ041-046-047-076>085-087-088-222100-
...PIKES PEAK/PALMER DIVIDE AND SOUTHERN FOOTHILLS...

CITY           SKY/WX    TMP DP  RH WIND       PRES   REMARKS
COLO. SPRINGS  PTSUNNY   82  34  17 S21G32    29.86F
A. F. ACADEMY  PTSUNNY   76  31  18 SE25G37   29.85F
SCHRIEVER AFB  FAIR      78  29  17 S20G31    29.88F
CHEYENNE MTN   FAIR      73  31  21 SE28G36   29.83F
ELLICOTT         N/A    N/A N/A N/A SW20G28   29.86F
FALCON         FAIR      77  28  16 S22G33    29.92F
FORT CARSON    NOT AVBL
LIMON          NOT AVBL
MONUMENT HILL  FAIR      73  32  21 S22G32    29.91F
CANON CITY     MOSUNNY   88  36  15 S17G23    29.80F
WALSENBURG     FAIR      81  28  15 SW20G31   29.88S
TRINIDAD       FAIR      83  36  18 SW14G30   29.87F
$$

COZ042>045-048>051-090-091-222100-
...NORTHEAST COLORADO...

CITY           SKY/WX    TMP DP  RH WIND       PRES   REMARKS
GREELEY ARPT   FAIR      78  41  26 E14G23    29.75F
AKRON          FAIR      80  37  21 E12       29.77F
BURLINGTON     FAIR      88  36  15 SW30G39   29.81S
WRAY           FAIR      91  32  12 S24G30    29.74F
YUMA           FAIR      79  43  27 NE9       29.76F
STERLING       FAIR      72  45  37 NE14      29.77F
HOLYOKE        FAIR      81  41  24 N7        29.76F
FORT MORGAN    FAIR      78  38  23 NE17G23   29.77F
$$

COZ086-089-092>099-222100-
...SOUTHEAST COLORADO...

CITY           SKY/WX    TMP DP  RH WIND       PRES   REMARKS
PUEBLO         FAIR      88  33  14 SW22G30   29.77F
LA JUNTA       FAIR      90  34  13 S23G35    29.78F
LAMAR          FAIR      93  35  13 SW29G45   29.76F
SPRINGFIELD      N/A     89  41  18 S25G43    29.85F
$$



USA.gov is the U.S. government's official web portal to all federal, state and local government web resources and services.